Location: Hard Labor Creek Observatory
(33.6704°N, 83.5946°W)
Time: 02:39:13
(UTC-04:00)

X-37B - Visible Passes

Search period start: 28 September 2020 00:00
Search period end: 08 October 2020 00:00
Orbit: 386 x 387 km, 45.0° (Epoch: 18 September)

Date Brightness Start Highest point End Pass type
(mag) Time Alt. Az. Time Alt. Az. Time Alt. Az.
29 Sep 2.5 21:00:21 10° SW 21:01:41 22° SSW 21:01:41 22° SSW visible
30 Sep 2.0 20:02:23 10° SSW 20:04:58 23° SE 20:06:26 17° E visible
30 Sep 4.0 21:38:30 10° W 21:38:45 12° W 21:38:45 12° W visible
01 Oct 0.7 20:39:40 10° WSW 20:42:50 72° NNW 20:43:20 56° NNE visible
02 Oct 0.9 19:41:13 10° SW 19:44:17 50° SE 19:47:23 10° ENE visible
02 Oct 3.2 21:18:29 10° WNW 21:20:04 19° NW 21:20:04 19° NW visible
03 Oct 1.9 20:19:22 10° W 20:22:20 36° NNW 20:24:23 17° NE visible
04 Oct 3.1 20:58:40 10° WNW 21:00:44 16° NNW 21:00:52 16° NNW visible
05 Oct 2.7 19:59:21 10° WNW 20:01:55 22° NNW 20:04:31 10° NNE visible
06 Oct 3.3 20:39:01 10° NW 20:40:28 12° N 20:41:19 11° N visible
07 Oct 3.1 19:39:33 10° WNW 19:41:36 16° NNW 19:43:39 10° NNE visible
